Wallops Island, VA

1:00 PM EST on December 11, 2019 (GMT -0500)
Wallops Flight Facility

Weather History for KWAL - October, 2019

Change the Weather History Date:

Friday, October 25, 2019

  Actual Average Record
Temperature  
Mean Temperature 58 °F 56 °F  
Max Temperature 66 °F 65 °F 81 °F (2001)
Min Temperature 48 °F 47 °F 34 °F (1988)
Degree Days  
Heating Degree Days 8    
Month to date heating degree days 98  
Since 1 July heating degree days 107  
Cooling Degree Days 0    
Month to date cooling degree days 53  
Year to date cooling degree days 1800  
Growing Degree Days 8 (Base 50)    
Moisture  
Dew Point 55 °F    
Average Humidity 88    
Maximum Humidity 100    
Minimum Humidity 73    
Precipitation  
Precipitation 0.00 in 0.10 in 0.46 in (2007)
Month to date precipitation 7.25 2.52  
Year to date precipitation 41.58 33.89  
Sea Level Pressure  
Sea Level Pressure 30.26 in    
Wind  
Wind Speed 2 mph ()    
Max Wind Speed 10 mph    
Max Gust Speed 13 mph    
Visibility 10.0 miles    
Events      
T = Trace of Precipitation, MM = Missing Value Source: Averaged Metar Reports

Daily Weather History Graph

Daily Weather History Graph

Search for Another Location

Airport or City:

Astronomy

Oct. 25, 2019 Rise Set
Actual Time 7:19 AM EDT 6:11 PM EDT
Civil Twilight 6:53 AM EDT 6:38 PM EDT
Nautical Twilight 6:22 AM EDT 7:08 PM EDT
Astronomical Twilight 5:51 AM EDT 7:39 PM EDT
Moon 4:04 AM EDT (10/25) 5:08 PM EDT (10/25)
Length of Visible Light 11h 45m
Length of Day
10h 51m
Waning Crescent, 9% of the Moon is Illuminated
Oct 25
Waning Crescent
Oct 27
New
Nov 4
First Quarter
Nov 12
Full
Nov 19
Last Quarter

Hourly Weather History & Observations

Time (EDT) Temp. Dew Point Humidity Pressure Visibility Wind Dir Wind Speed Gust Speed Precip Events Conditions
12:54 AM 48.9 °F 48.9 °F 100% 30.32 in 10.0 mi Calm Calm - N/A   Clear
1:54 AM 48.0 °F 46.9 °F 96% 30.31 in 10.0 mi Calm Calm - N/A   Clear
2:54 AM 50.0 °F 48.9 °F 96% 30.30 in 10.0 mi Calm Calm - N/A   Clear
3:54 AM 50.0 °F 48.9 °F 96% 30.28 in 10.0 mi Calm Calm - N/A   Clear
4:54 AM 50.0 °F 48.9 °F 96% 30.29 in 10.0 mi Calm Calm - N/A   Clear
5:54 AM 51.1 °F 50.0 °F 96% 30.30 in 10.0 mi Calm Calm - N/A   Overcast
6:54 AM 52.0 °F 51.1 °F 97% 30.30 in 10.0 mi Calm Calm - N/A   Mostly Cloudy
7:54 AM 54.0 °F 53.1 °F 97% 30.30 in 10.0 mi North - - N/A   Mostly Cloudy
8:54 AM 59.0 °F 57.9 °F 96% 30.31 in 10.0 mi Calm Calm - N/A   Partly Cloudy
9:54 AM 63.0 °F 61.0 °F 93% 30.31 in 10.0 mi SE 3.5 mph - N/A   Mostly Cloudy
10:54 AM 64.0 °F 61.0 °F 90% 30.31 in 10.0 mi SSE 4.6 mph - N/A   Mostly Cloudy
11:54 AM 66.0 °F 59.0 °F 78% 30.30 in 10.0 mi South 8.1 mph - N/A   Mostly Cloudy
12:54 PM 66.0 °F 59.0 °F 78% 30.27 in 10.0 mi South 8.1 mph - N/A   Overcast
1:54 PM 66.9 °F 60.1 °F 79% 30.24 in 10.0 mi South 9.2 mph - N/A   Mostly Cloudy
2:54 PM 66.0 °F 59.0 °F 78% 30.22 in 10.0 mi South 8.1 mph - N/A   Mostly Cloudy
3:54 PM 66.0 °F 57.9 °F 75% 30.20 in 10.0 mi South 8.1 mph - N/A   Mostly Cloudy
4:54 PM 64.9 °F 57.0 °F 75% 30.19 in 10.0 mi South 5.8 mph - N/A   Clear
5:54 PM 63.0 °F 57.0 °F 81% 30.19 in 10.0 mi South 5.8 mph - N/A   Partly Cloudy
6:54 PM 62.1 °F 57.0 °F 84% 30.20 in 10.0 mi SW 3.5 mph - N/A   Clear
7:54 PM 61.0 °F 57.9 °F 90% 30.21 in 10.0 mi SW 4.6 mph - N/A   Clear
8:54 PM 59.0 °F 55.9 °F 90% 30.21 in 10.0 mi WSW 4.6 mph - N/A   Clear
9:54 PM 59.0 °F 55.0 °F 87% 30.22 in 10.0 mi West 4.6 mph - N/A   Mostly Cloudy
10:54 PM 57.9 °F 55.0 °F 90% 30.22 in 10.0 mi WSW 3.5 mph - N/A   Clear
11:54 PM 61.0 °F 53.1 °F 75% 30.21 in 10.0 mi WSW 4.6 mph - N/A   Clear